Weather History for Owatonna, MN

Change the Weather History Date:

Friday, May 17, 2013

  Actual Average Record
Temperature  
Mean Temperature 62 °F -  
Max Temperature 69 °F 74 °F 93 °F (1987)
Min Temperature 55 °F 48 °F 31 °F (1973)
Degree Days  
Heating Degree Days 3    
Growing Degree Days 12 (Base 50)    
Moisture  
Dew Point 58 °F    
Average Humidity 89    
Maximum Humidity 100    
Minimum Humidity 53    
Precipitation  
Precipitation 1.12 in - - ()
Sea Level Pressure  
Sea Level Pressure 29.94 in    
Wind  
Wind Speed 9 mph (ESE)    
Max Wind Speed 23 mph    
Max Gust Speed 30 mph    
Visibility 8 miles    
Events Rain , Thunderstorm    
Averages and records for this station are not official NWS values.
T = Trace of Precipitation, MM = Missing Value Source: NWS Daily Summary

Daily Weather History Graph

Daily Weather History Graph

Search for Another Location

Airport:

Trip Planner

Search our weather history database for the weather conditions in past years. The results will help you decide how hot, cold, wet, or windy it might be!

Date:

Astronomy

May. 17, 2013 Rise Set
Actual Time 5:44 AM CDT 8:35 PM CDT
Civil Twilight 5:10 AM CDT 9:09 PM CDT
Nautical Twilight 4:27 AM CDT 9:52 PM CDT
Astronomical Twilight 3:37 AM CDT 10:42 PM CDT
Moon 12:23 PM CDT 1:22 AM CDT
Length of Visible Light 15h 58m
Length of Day
14h 51m
Waxing Crescent, 45% of the Moon is Illuminated
May 17
Waxing Crescent
May 17
First Quarter
May 24
Full
May 31
Last Quarter
Jun 8
New

Hourly Weather History & Observations

Time (CDT) Temp. Dew Point Humidity Pressure Visibility Wind Dir Wind Speed Gust Speed Precip Events Conditions
12:14 AM 69.8 °F 51.8 °F 53% 29.88 in 10.0 mi Calm Calm - N/A   Overcast
12:34 AM 66.2 °F 53.6 °F 64% 29.88 in 10.0 mi Calm Calm - N/A Rain Light Rain
12:54 AM 66.2 °F 55.4 °F 68% 29.89 in 10.0 mi Calm Calm - N/A Rain Light Rain
1:14 AM 64.4 °F 57.2 °F 77% 29.89 in 10.0 mi Calm Calm - N/A Rain Light Rain
1:34 AM 62.6 °F 57.2 °F 82% 29.88 in 10.0 mi ESE 4.6 mph - N/A Rain Light Rain
1:54 AM 62.6 °F 59.0 °F 88% 29.89 in 10.0 mi Calm Calm - 0.01 in Rain Light Rain
2:14 AM 62.6 °F 59.0 °F 88% 29.88 in 10.0 mi SE 4.6 mph - N/A Rain Light Rain
2:34 AM 62.6 °F 59.0 °F 88% 29.88 in 10.0 mi East 3.5 mph - N/A   Mostly Cloudy
2:54 AM 62.6 °F 59.0 °F 88% 29.90 in 10.0 mi East 4.6 mph - 0.01 in Rain , Thunderstorm Light Thunderstorms and Rain
3:14 AM 62.6 °F 59.0 °F 88% 29.91 in 10.0 mi East 5.8 mph - N/A Rain Rain
3:34 AM 62.6 °F 57.2 °F 82% 29.92 in 10.0 mi East 8.1 mph - 0.04 in Rain , Thunderstorm Rain
3:54 AM 60.8 °F 57.2 °F 88% 29.92 in 10.0 mi East 10.4 mph - 0.10 in Rain Rain
4:14 AM 60.8 °F 57.2 °F 88% 29.94 in 10.0 mi ESE 5.8 mph - 0.04 in Rain Heavy Rain
4:34 AM 60.8 °F 57.2 °F 88% 29.94 in 10.0 mi East 4.6 mph - 0.08 in Rain , Thunderstorm Heavy Thunderstorms and Rain
4:54 AM 60.8 °F 57.2 °F 88% 29.94 in 10.0 mi ESE 5.8 mph - 0.13 in Rain Rain
5:14 AM 60.8 °F 59.0 °F 94% 29.93 in 10.0 mi East 10.4 mph - 0.05 in Rain Heavy Rain
5:34 AM 60.8 °F 57.2 °F 88% 29.91 in 10.0 mi ESE 23.0 mph 26.5 mph 0.13 in Rain Heavy Rain
5:54 AM 57.2 °F 55.4 °F 94% 29.92 in 10.0 mi ESE 20.7 mph 27.6 mph 0.19 in Rain Light Rain
6:14 AM 57.2 °F 55.4 °F 94% 29.92 in 10.0 mi ESE 21.9 mph 29.9 mph 0.02 in Rain Heavy Rain
6:34 AM 57.2 °F 55.4 °F 94% 29.92 in 10.0 mi SE 16.1 mph - 0.04 in Rain Rain
7:14 AM 57.2 °F 55.4 °F 94% 29.93 in 10.0 mi SE 17.3 mph 25.3 mph 0.01 in Rain Light Rain
7:34 AM 57.2 °F 55.4 °F 94% 29.92 in 10.0 mi SE 21.9 mph 26.5 mph 0.01 in Thunderstorm Unknown
7:54 AM 57.2 °F 55.4 °F 94% 29.92 in 10.0 mi SE 16.1 mph - 0.01 in Rain Light Rain
8:14 AM 57.2 °F 55.4 °F 94% 29.92 in 10.0 mi SE 16.1 mph 20.7 mph 0.01 in   Light Drizzle
8:34 AM 57.2 °F 55.4 °F 94% 29.93 in 10.0 mi ESE 18.4 mph 23.0 mph 0.01 in   Mostly Cloudy
8:54 AM 57.2 °F 55.4 °F 94% 29.93 in 10.0 mi ESE 17.3 mph 27.6 mph 0.01 in   Scattered Clouds
9:14 AM 57.2 °F 55.4 °F 94% 29.95 in 10.0 mi ESE 15.0 mph 21.9 mph N/A   Light Drizzle
9:34 AM 55.4 °F 55.4 °F 100% 29.95 in 7.0 mi ESE 13.8 mph 18.4 mph 0.22 in Rain , Thunderstorm Thunderstorms and Rain
9:54 AM 57.2 °F 55.4 °F 94% 29.97 in 5.0 mi SE 11.5 mph 19.6 mph 0.33 in Rain Rain
10:14 AM 57.2 °F 55.4 °F 94% 29.98 in 5.0 mi ESE 6.9 mph - 0.10 in Rain Rain
10:34 AM 57.2 °F 55.4 °F 94% 29.97 in 10.0 mi SE 9.2 mph - 0.16 in Rain , Thunderstorm Rain
10:54 AM 57.2 °F 55.4 °F 94% 29.97 in 10.0 mi ESE 13.8 mph - 0.23 in Rain Rain
11:14 AM 57.2 °F 57.2 °F 100% 29.96 in 7.0 mi ESE 15.0 mph - 0.02 in Rain Light Rain
11:34 AM 59.0 °F 57.2 °F 94% 29.97 in 10.0 mi ESE 11.5 mph - 0.03 in Rain Light Rain
11:54 AM 59.0 °F 57.2 °F 94% 29.97 in 10.0 mi ESE 12.7 mph - 0.03 in   Light Drizzle
12:14 PM 60.8 °F 57.2 °F 88% 29.97 in 10.0 mi ESE 12.7 mph 17.3 mph N/A   Scattered Clouds
12:34 PM 60.8 °F 57.2 °F 88% 29.97 in 10.0 mi East 9.2 mph - N/A Rain Light Rain
12:54 PM 60.8 °F 59.0 °F 94% 29.98 in 10.0 mi ESE 5.8 mph - N/A   Drizzle
1:14 PM 60.8 °F 59.0 °F 94% 29.97 in 10.0 mi ESE 12.7 mph - 0.02 in Rain Light Rain
1:34 PM 60.8 °F 57.2 °F 88% 29.97 in 7.0 mi ESE 12.7 mph - 0.03 in Rain Rain
2:14 PM 62.6 °F 60.8 °F 94% 29.96 in 7.0 mi ESE 15.0 mph 19.6 mph N/A   Clear
2:34 PM 62.6 °F 60.8 °F 94% 29.97 in 7.0 mi ESE 13.8 mph 17.3 mph N/A   Mostly Cloudy
2:54 PM 64.4 °F 60.8 °F 88% 29.97 in 7.0 mi ESE 16.1 mph - N/A   Mostly Cloudy
3:14 PM 64.4 °F 60.8 °F 88% 29.96 in 7.0 mi East 15.0 mph - N/A   Mostly Cloudy
3:34 PM 66.2 °F 62.6 °F 88% 29.95 in 7.0 mi ESE 12.7 mph - N/A   Scattered Clouds
3:54 PM 66.2 °F 62.6 °F 88% 29.94 in 7.0 mi East 11.5 mph - N/A   Scattered Clouds
4:14 PM 66.2 °F 62.6 °F 88% 29.94 in 7.0 mi ESE 12.7 mph - N/A   Scattered Clouds
4:34 PM 66.2 °F 62.6 °F 88% 29.94 in 7.0 mi ESE 13.8 mph - N/A   Scattered Clouds
4:54 PM 64.4 °F 60.8 °F 88% 29.95 in 7.0 mi East 11.5 mph - N/A   Scattered Clouds
5:14 PM 64.4 °F 60.8 °F 88% 29.94 in 7.0 mi East 10.4 mph - N/A   Mostly Cloudy
5:34 PM 62.6 °F 60.8 °F 94% 29.96 in 7.0 mi East 10.4 mph - N/A   Mostly Cloudy
5:54 PM 62.6 °F 60.8 °F 94% 29.94 in 7.0 mi East 13.8 mph - N/A   Mostly Cloudy
6:14 PM 62.6 °F 60.8 °F 94% 29.93 in 7.0 mi East 10.4 mph - N/A   Scattered Clouds
6:34 PM 62.6 °F 60.8 °F 94% 29.94 in 7.0 mi East 9.2 mph - N/A   Mostly Cloudy
6:54 PM 62.6 °F 59.0 °F 88% 29.93 in 7.0 mi East 12.7 mph - N/A   Scattered Clouds
7:14 PM 62.6 °F 59.0 °F 88% 29.92 in 7.0 mi East 10.4 mph - N/A   Clear
7:34 PM 62.6 °F 59.0 °F 88% 29.92 in 7.0 mi East 12.7 mph - N/A   Clear
7:54 PM 62.6 °F 59.0 °F 88% 29.93 in 7.0 mi East 12.7 mph 17.3 mph N/A   Clear
8:14 PM 62.6 °F 59.0 °F 88% 29.94 in 7.0 mi East 10.4 mph - N/A   Clear
8:34 PM 62.6 °F 59.0 °F 88% 29.94 in 5.0 mi East 10.4 mph - N/A   Clear
8:54 PM 60.8 °F 59.0 °F 94% 29.94 in 7.0 mi East 10.4 mph - N/A   Clear
9:14 PM 60.8 °F 59.0 °F 94% 29.94 in 7.0 mi East 11.5 mph - N/A   Clear
9:34 PM 60.8 °F 59.0 °F 94% 29.94 in 7.0 mi East 12.7 mph 18.4 mph N/A   Clear
9:54 PM 60.8 °F 57.2 °F 88% 29.95 in 7.0 mi East 12.7 mph - N/A   Clear
10:14 PM 60.8 °F 57.2 °F 88% 29.95 in 7.0 mi East 13.8 mph - N/A   Clear
10:34 PM 60.8 °F 57.2 °F 88% 29.96 in 7.0 mi East 11.5 mph - N/A   Scattered Clouds
10:54 PM 60.8 °F 59.0 °F 94% 29.96 in 7.0 mi ESE 13.8 mph - N/A   Mostly Cloudy
11:14 PM 62.6 °F 59.0 °F 88% 29.96 in 10.0 mi ESE 13.8 mph 19.6 mph N/A   Mostly Cloudy
11:34 PM 62.6 °F 59.0 °F 88% 29.97 in 10.0 mi ESE 16.1 mph - N/A   Mostly Cloudy
11:54 PM 60.8 °F 57.2 °F 88% 29.96 in 10.0 mi ESE 15.0 mph 20.7 mph N/A   Scattered Clouds